sat.trackr.live / text

‹ back to catalog

STARLINK-32463

NORAD 62130 · 2024-222S

PAYLOAD ACTIVE UNKNOWN

§ Identity

Operator
Country
US
Launch date
2024-11-27
Launch site
AFETR
Launch vehicle
Mass (kg)
RCS (m²)

Purposes: comms

External: N2YO · Heavens-Above · Gunter

§ Orbital elements

Epoch: 2026-09-21T22:15:39.538080Z

Period
94.26 min
Inclination
43.0008°
Eccentricity
0.0000979
Mean motion
15.27609892 rev/d
Perigee alt
482.3 km
Apogee alt
483.6 km
Semi-major
6,861.1 km
B*
7.3101e-4
RAAN
107.7089°
Arg perigee
302.2363°
Mean anomaly
57.8394°
Rev number
10,276

§ Raw data

STARLINK-324631 62130U 24222S   26264.92754095  .00019926  00000+0  73101-3 0  99962 62130  43.0008 107.7089 0000979 302.2363  57.8394 15.27609892102766

JSON: /api/v1/satellites/62130 · /tle

For live sub-satellite position, see the globe view (requires WebGL).

§ Visibility from observer

Set your observer location to see the next 7 days of passes ≥ 10°. The values pass through the URL so the page stays shareable.

No JS? Fill the form by hand. The geolocation button needs JavaScript.